Home > Weather > Lawrence > Past weeks

Flag for USA Weather for the Past 2 Weeks in Lawrence, Kansas, USA

Now
39 °F

Fog.


Feels Like: 39 °F
Forecast: 41 / 69 °F
Wind: No wind

Location: Lawrence Municipal Airport

Current Time: May 3, 2016 at 4:11:30 AM

Latest Report: May 3, 2016 at 3:00 AM


Visibility: 2 mi

Pressure: 30.07 "Hg

Humidity: 96%

Dew Point: 38 °F

Location of LawrenceLocation

Historic Weather in Lawrence — Graph

°F

Lawrence Temperature Yesterday

Maximum temperature yesterday: 57 °F (at 10:52 AM)
Minimum temperature yesterday: 43 °F (at 10:52 PM)
Average temperature yesterday: 51 °F

High & Low Weather Summary for the Past Weeks

 TemperatureHumidityPressure
High81 °F (Apr 23, 4:52 PM)100% (Apr 23, 3:02 AM)30.20 "Hg (Apr 23, 3:02 AM)
Low40 °F (May 3, 1:52 AM)34% (Apr 23, 3:52 PM)29.36 "Hg (Apr 27, 3:52 AM)
Average59 °F78%29.90 "Hg
* Reported Apr 18 1:52 AM — May 3 1:52 AM, Lawrence, Weather by CustomWeather, © 2016

Note: Actual official high and low records may vary slightly from our data, if they occured in-between our weather recording intervals... More about our weather records

Advertising

Lawrence Weather History for the Previous 24 Hours

Scroll right to see more
 ConditionsComfort  
Time TempWeatherWind HumidityBarometerVisibility
1:52 AM
Tue, May 3
40 °FFog.No wind100%30.07 "Hg5 mi
12:52 AM41 °FFog.No wind100%30.08 "Hg6 mi
11:59 PM
Mon, May 2
43 °FFog.No wind93%30.08 "Hg2 mi
10:52 PM43 °FClear.No wind97%30.08 "Hg10 mi
9:52 PM45 °FClear.No wind97%30.08 "Hg10 mi
8:52 PM48 °FSunny.No wind93%30.07 "Hg10 mi
7:52 PM55 °FScattered clouds.3 mph69%30.08 "Hg10 mi
6:52 PM57 °FBroken clouds.No wind64%30.07 "Hg10 mi
5:52 PM56 °FMostly cloudy.5 mph67%30.08 "Hg10 mi
4:52 PM56 °FMostly cloudy.No wind67%30.08 "Hg10 mi
3:52 PM56 °FMostly cloudy.No wind70%30.09 "Hg10 mi
2:52 PM53 °FOvercast.7 mph77%30.11 "Hg10 mi
1:52 PM56 °FMostly cloudy.6 mph65%30.10 "Hg10 mi
12:52 PM56 °FMostly cloudy.7 mph65%30.11 "Hg10 mi
11:59 AM55 °FMostly cloudy.8 mph69%30.12 "Hg10 mi
10:52 AM57 °FMore clouds than sun.12 mph64%30.11 "Hg10 mi
9:52 AM53 °FOvercast.10 mph72%30.13 "Hg10 mi
8:52 AM51 °FOvercast.8 mph80%30.14 "Hg10 mi
7:52 AM49 °FOvercast.7 mph84%30.12 "Hg10 mi
6:52 AM48 °FOvercast.8 mph86%30.11 "Hg10 mi
5:52 AM48 °FOvercast.9 mph86%30.11 "Hg10 mi
4:52 AM48 °FMostly cloudy.8 mph86%30.12 "Hg10 mi
Weather by CustomWeather, © 2016

See weather overviewHow to use our weather pages